This is the latest recevied weather packets stored in our database for station/object WA1OUI. If no packets are shown the sender has not sent any weather packets the latest 10 day(s).
| Time | Temp. | Humidity | Pressure | Rain* | Wind** | Luminosity | Snow |
|---|---|---|---|---|---|---|---|
| 1777773627 | 7.78° C | 62% | 1009.8 hPa | 0 mm | - | 0 W/m² | - |
| 1777773323 | 7.78° C | 60% | 1009.8 hPa | 0 mm | - | 0 W/m² | - |
| 1777773021 | 7.78° C | 55% | 1009.8 hPa | 0 mm | - | 0 W/m² | - |
| 1777772717 | 7.78° C | 58% | 1009.8 hPa | 0 mm | - | 0 W/m² | - |
| 1777772415 | 7.78° C | 59% | 1009.7 hPa | 0 mm | - | 0 W/m² | - |
| 1777772112 | 8.33° C | 63% | 1009.7 hPa | 0 mm | - | 0 W/m² | - |
| 1777771809 | 8.33° C | 58% | 1009.9 hPa | 0 mm | - | 0 W/m² | - |
| 1777771507 | 8.89° C | 59% | 1009.8 hPa | 0 mm | - | 0 W/m² | - |
| 1777771203 | 8.89° C | 55% | 1009.6 hPa | 0 mm | - | 0 W/m² | - |
| 1777770900 | 8.89° C | 55% | 1009.7 hPa | 0 mm | - | 0 W/m² | - |
| 1777770596 | 8.89° C | 57% | 1009.7 hPa | 0 mm | - | 0 W/m² | - |
| 1777770293 | 9.44° C | 52% | 1009.7 hPa | 0 mm | - | 0 W/m² | - |
| 1777769990 | 9.44° C | 55% | 1009.7 hPa | 0 mm | - | 0 W/m² | - |
| 1777769688 | 9.44° C | 54% | 1009.6 hPa | 0 mm | - | 0 W/m² | - |
| 1777769384 | 9.44° C | 52% | 1009.4 hPa | 0 mm | - | 0 W/m² | - |
| 1777769081 | 10° C | 56% | 1009.6 hPa | 0 mm | - | 0 W/m² | - |
| 1777768779 | 10° C | 53% | 1009.4 hPa | 0 mm | - | 0 W/m² | - |
| 1777768475 | 10° C | 53% | 1009.4 hPa | 0 mm | - | 0 W/m² | - |
| 1777768172 | 10° C | 53% | 1009.1 hPa | 0 mm | - | 0 W/m² | - |
| 1777767870 | 10° C | 55% | 1009.3 hPa | 0 mm | - | 0 W/m² | - |
| 1777767566 | 10° C | 51% | 1009.2 hPa | 0 mm | - | 0 W/m² | - |
| 1777767262 | 10.56° C | 54% | 1008.9 hPa | 0 mm | - | 0 W/m² | - |
| 1777766960 | 10.56° C | 55% | 1009.1 hPa | 0 mm | - | 0 W/m² | - |
| 1777766657 | 10.56° C | 53% | 1009 hPa | 0 mm | - | 0 W/m² | - |
| 1777766354 | 10.56° C | 58% | 1008.9 hPa | 0 mm | - | 1 W/m² | - |
* Rain latest hour (hover to see other rain measurements)
** Current wind speed in m/s (hover to see current wind gust speed)